This is the latest recevied weather packets stored in our database for station/object K1BWE-1. If no packets are shown the sender has not sent any weather packets the latest 1 day(s).
| Time | Temp. | Humidity | Pressure | Rain* | Wind** | Luminosity | Snow |
|---|---|---|---|---|---|---|---|
| 1778041727 | 14.44° C | 56% | 1015.1 hPa | 0 mm | - | 0 W/m² | - |
| 1778041426 | 14.44° C | 58% | 1015 hPa | 0 mm | - | 0 W/m² | - |
| 1778041124 | 15° C | 56% | 1014.9 hPa | 0 mm | - | 0 W/m² | - |
| 1778040821 | 15° C | 54% | 1015.1 hPa | 0 mm | - | 0 W/m² | - |
| 1778040215 | 15° C | 59% | 1014.5 hPa | 0 mm | - | 0 W/m² | - |
| 1778039911 | 15° C | 56% | 1014.4 hPa | 0 mm | - | 0 W/m² | - |
| 1778039609 | 15° C | 54% | 1014.4 hPa | 0 mm | - | 0 W/m² | - |
| 1778039306 | 15.56° C | 51% | 1014.7 hPa | 0 mm | - | 0 W/m² | - |
| 1778039003 | 15.56° C | 50% | 1014.1 hPa | 0 mm | - | 0 W/m² | - |
| 1778038700 | 15.56° C | 50% | 1014.3 hPa | 0 mm | - | 0 W/m² | - |
| 1778038397 | 16.11° C | 47% | 1014.4 hPa | 0 mm | - | 0 W/m² | - |
| 1778038094 | 16.11° C | 47% | 1014.1 hPa | 0 mm | - | 0 W/m² | - |
| 1778037791 | 16.67° C | 47% | 1014 hPa | 0 mm | - | 0 W/m² | - |
| 1778037185 | 17.22° C | 45% | 1013.8 hPa | 0 mm | - | 0 W/m² | - |
| 1778036277 | 17.22° C | 44% | 1013.7 hPa | 0 mm | - | 0 W/m² | - |
| 1778035973 | 17.78° C | 43% | 1013.4 hPa | 0 mm | - | 0 W/m² | - |
| 1778035670 | 17.78° C | 42% | 1013.7 hPa | 0 mm | - | 0 W/m² | - |
| 1778035063 | 17.78° C | 42% | 1013.2 hPa | 0 mm | - | 0 W/m² | - |
| 1778034760 | 17.78° C | 41% | 1013.2 hPa | 0 mm | - | 0 W/m² | - |
| 1778034457 | 18.33° C | 41% | 1013.2 hPa | 0 mm | - | 0 W/m² | - |
| 1778034155 | 18.33° C | 40% | 1013 hPa | 0 mm | - | 0 W/m² | - |
| 1778033853 | 18.33° C | 39% | 1012.9 hPa | 0 mm | - | 0 W/m² | - |
| 1778033549 | 18.33° C | 38% | 1012.8 hPa | 0 mm | - | 0 W/m² | - |
| 1778033246 | 18.33° C | 38% | 1012.9 hPa | 0 mm | - | 2 W/m² | - |
| 1778032642 | 18.89° C | 35% | 1012.6 hPa | 0 mm | - | 7 W/m² | - |
* Rain latest hour (hover to see other rain measurements)
** Current wind speed in m/s (hover to see current wind gust speed)